TimeCDT,TemperatureF,Dew PointF,Humidity,Sea Level PressureIn,VisibilityMPH,Wind Direction,Wind SpeedMPH,Gust SpeedMPH,PrecipitationIn,Events,Conditions,WindDirDegrees,DateUTC
12:15 AM,64.8,46.2,51,29.83,10.0,SSW,24.2,32.2,N/A,,Clear,200,2013-04-07 05:15:00
12:35 AM,64.8,46.6,52,29.83,10.0,SSW,20.7,29.9,N/A,,Clear,200,2013-04-07 05:35:00
12:55 AM,64.4,46.4,52,29.83,10.0,SSW,19.6,26.5,N/A,,Clear,200,2013-04-07 05:55:00
1:15 AM,64.4,47.1,53,29.84,10.0,SSW,18.4,25.3,N/A,,Clear,200,2013-04-07 06:15:00
1:35 AM,64.2,47.3,54,29.84,10.0,SSW,17.3,25.3,N/A,,Clear,210,2013-04-07 06:35:00
1:55 AM,63.5,47.5,56,29.83,10.0,SSW,17.3,21.9,N/A,,Clear,210,2013-04-07 06:55:00
2:15 AM,63.7,48.0,57,29.84,10.0,SW,12.7,20.7,N/A,,Mostly Cloudy,220,2013-04-07 07:15:00
2:35 AM,63.0,48.2,59,29.84,10.0,SW,9.2,-,N/A,,Mostly Cloudy,230,2013-04-07 07:35:00
2:55 AM,62.6,48.4,60,29.84,10.0,SW,9.2,-,N/A,,Mostly Cloudy,220,2013-04-07 07:55:00
3:15 AM,62.6,48.2,59,29.85,10.0,SW,13.8,17.3,N/A,,Overcast,220,2013-04-07 08:15:00
3:35 AM,61.5,48.4,62,29.85,10.0,SW,10.4,-,N/A,,Scattered Clouds,220,2013-04-07 08:35:00
3:55 AM,60.8,48.4,64,29.85,10.0,SW,9.2,-,N/A,,Clear,220,2013-04-07 08:55:00
4:15 AM,59.9,48.4,66,29.85,10.0,SW,8.1,-,N/A,,Clear,220,2013-04-07 09:15:00
4:35 AM,58.6,48.4,69,29.86,10.0,SSW,6.9,-,N/A,,Clear,210,2013-04-07 09:35:00
4:55 AM,58.6,48.4,69,29.87,10.0,SSW,8.1,-,N/A,,Clear,210,2013-04-07 09:55:00
5:15 AM,58.5,48.4,69,29.88,10.0,SSW,8.1,-,N/A,,Scattered Clouds,200,2013-04-07 10:15:00
5:35 AM,58.1,48.2,70,29.88,10.0,SSW,8.1,-,N/A,,Scattered Clouds,200,2013-04-07 10:35:00
5:55 AM,57.7,48.4,71,29.89,10.0,SSW,6.9,-,N/A,,Scattered Clouds,200,2013-04-07 10:55:00
6:15 AM,57.2,48.2,72,29.89,10.0,SSW,6.9,-,N/A,,Scattered Clouds,200,2013-04-07 11:15:00
6:35 AM,57.2,48.4,72,29.90,10.0,SSW,5.8,-,N/A,,Scattered Clouds,200,2013-04-07 11:35:00
6:55 AM,57.9,48.7,71,29.91,10.0,SSW,5.8,-,N/A,,Mostly Cloudy,210,2013-04-07 11:55:00
7:15 AM,58.5,49.6,72,29.91,10.0,SSW,4.6,-,N/A,,Mostly Cloudy,210,2013-04-07 12:15:00
7:35 AM,60.1,49.5,68,29.92,10.0,SSW,5.8,-,N/A,,Overcast,200,2013-04-07 12:35:00
7:55 AM,60.1,50.0,69,29.92,10.0,South,5.8,-,N/A,,Mostly Cloudy,180,2013-04-07 12:55:00
8:15 AM,61.7,50.4,66,29.93,10.0,South,4.6,-,N/A,,Clear,190,2013-04-07 13:15:00
8:35 AM,62.6,50.4,64,29.93,10.0,South,9.2,-,N/A,,Scattered Clouds,190,2013-04-07 13:35:00
8:55 AM,63.5,50.4,62,29.93,10.0,SSW,6.9,-,N/A,,Scattered Clouds,210,2013-04-07 13:55:00
9:15 AM,64.8,51.3,62,29.93,10.0,South,9.2,-,N/A,,Scattered Clouds,190,2013-04-07 14:15:00
9:35 AM,66.2,51.1,58,29.93,10.0,SSW,10.4,-,N/A,,Scattered Clouds,210,2013-04-07 14:35:00
9:55 AM,66.2,51.8,60,29.94,10.0,WSW,9.2,-,N/A,,Clear,240,2013-04-07 14:55:00
10:15 AM,67.5,51.8,57,29.94,10.0,WSW,4.6,-,N/A,,Clear,240,2013-04-07 15:15:00
10:35 AM,68.4,51.1,54,29.94,10.0,SSW,4.6,-,N/A,,Scattered Clouds,210,2013-04-07 15:35:00
10:55 AM,68.9,50.2,51,29.95,10.0,Calm,Calm,-,N/A,,Scattered Clouds,0,2013-04-07 15:55:00
11:15 AM,70.0,50.9,51,29.95,10.0,Calm,Calm,-,N/A,,Clear,0,2013-04-07 16:15:00
11:35 AM,71.6,52.3,51,29.95,10.0,Calm,Calm,-,N/A,,Scattered Clouds,0,2013-04-07 16:35:00
11:55 AM,73.0,51.8,47,29.94,10.0,SSE,4.6,-,N/A,,Scattered Clouds,160,2013-04-07 16:55:00
12:15 PM,72.9,50.7,46,29.95,10.0,SSW,3.5,-,N/A,,Clear,210,2013-04-07 17:15:00
12:35 PM,73.6,51.4,46,29.94,10.0,Calm,Calm,-,N/A,,Clear,0,2013-04-07 17:35:00
12:55 PM,74.8,51.6,44,29.93,10.0,SE,3.5,-,N/A,,Clear,140,2013-04-07 17:55:00
1:15 PM,75.2,51.3,43,29.93,10.0,South,3.5,-,N/A,,Clear,180,2013-04-07 18:15:00
1:35 PM,75.6,50.9,42,29.93,10.0,Calm,Calm,-,N/A,,Clear,0,2013-04-07 18:35:00
1:55 PM,75.4,51.8,44,29.92,10.0,SSE,6.9,-,N/A,,Scattered Clouds,160,2013-04-07 18:55:00
2:15 PM,76.1,52.2,43,29.92,10.0,SE,3.5,-,N/A,,Scattered Clouds,130,2013-04-07 19:15:00
2:35 PM,77.2,52.3,42,29.91,10.0,Calm,Calm,-,N/A,,Scattered Clouds,0,2013-04-07 19:35:00
2:55 PM,77.2,51.8,41,29.91,10.0,WSW,5.8,-,N/A,,Clear,240,2013-04-07 19:55:00
3:15 PM,78.3,52.0,40,29.90,10.0,SW,6.9,-,N/A,,Scattered Clouds,220,2013-04-07 20:15:00
3:35 PM,76.6,52.2,42,29.90,10.0,SE,3.5,-,N/A,,Scattered Clouds,130,2013-04-07 20:35:00
3:55 PM,77.4,51.6,41,29.89,10.0,Calm,Calm,-,N/A,,Scattered Clouds,0,2013-04-07 20:55:00
4:15 PM,77.7,52.2,41,29.88,10.0,ESE,5.8,-,N/A,,Clear,120,2013-04-07 21:15:00
4:35 PM,77.9,52.7,41,29.88,10.0,South,5.8,-,N/A,,Scattered Clouds,190,2013-04-07 21:35:00
4:55 PM,77.0,53.8,44,29.87,10.0,SE,8.1,-,N/A,,Scattered Clouds,130,2013-04-07 21:55:00
5:15 PM,75.2,54.5,48,29.87,10.0,SE,12.7,-,N/A,,Mostly Cloudy,140,2013-04-07 22:15:00
5:35 PM,71.1,58.6,65,29.90,4.0,SE,6.9,-,0.10,Rain-Thunderstorm,Heavy Thunderstorms and Rain,130,2013-04-07 22:35:00
5:55 PM,65.3,50.7,59,29.89,2.5,North,11.5,24.2,0.67,Rain-Thunderstorm,Heavy Thunderstorms and Rain,350,2013-04-07 22:55:00
6:15 PM,60.8,51.3,71,29.91,1.5,NE,8.1,23.0,0.18,Rain-Thunderstorm,Light Thunderstorms and Rain,40,2013-04-07 23:15:00
6:35 PM,62.6,53.1,71,29.90,10.0,East,6.9,-,0.18,,Overcast,80,2013-04-07 23:35:00
6:55 PM,62.2,53.8,74,29.90,10.0,ESE,4.6,-,0.18,,Mostly Cloudy,110,2013-04-07 23:55:00
7:15 PM,62.6,53.8,73,29.88,10.0,East,4.6,-,N/A,,Scattered Clouds,80,2013-04-08 00:15:00
7:35 PM,62.8,54.5,74,29.88,10.0,East,4.6,-,N/A,,Scattered Clouds,80,2013-04-08 00:35:00
7:55 PM,62.4,56.1,80,29.88,10.0,ESE,3.5,-,N/A,,Mostly Cloudy,120,2013-04-08 00:55:00
8:15 PM,63.0,55.4,76,29.88,10.0,ESE,4.6,-,N/A,,Mostly Cloudy,110,2013-04-08 01:15:00
8:35 PM,65.3,57.7,76,29.90,10.0,SSE,6.9,-,N/A,Rain,Light Rain,150,2013-04-08 01:35:00
8:55 PM,64.8,59.0,82,29.90,7.0,SE,6.9,-,0.02,Rain,Rain,140,2013-04-08 01:55:00
9:15 PM,65.1,59.2,81,29.90,10.0,SSE,9.2,-,N/A,,Mostly Cloudy,150,2013-04-08 02:15:00
9:35 PM,66.4,58.6,76,29.90,10.0,South,11.5,-,N/A,,Mostly Cloudy,170,2013-04-08 02:35:00
9:55 PM,66.2,58.6,77,29.91,10.0,SSE,8.1,-,N/A,,Mostly Cloudy,160,2013-04-08 02:55:00
10:15 PM,66.0,58.6,77,29.91,10.0,SSE,8.1,-,N/A,,Overcast,160,2013-04-08 03:15:00
10:35 PM,66.2,58.1,75,29.91,10.0,South,11.5,17.3,N/A,,Overcast,180,2013-04-08 03:35:00
10:55 PM,66.2,57.6,74,29.91,10.0,South,12.7,17.3,N/A,,Mostly Cloudy,170,2013-04-08 03:55:00
11:15 PM,65.7,57.6,75,29.91,10.0,SSE,9.2,-,N/A,,Scattered Clouds,160,2013-04-08 04:15:00
11:35 PM,65.7,57.6,75,29.90,10.0,South,10.4,-,N/A,,Clear,170,2013-04-08 04:35:00
11:55 PM,65.3,57.4,76,29.89,10.0,South,10.4,-,N/A,,Clear,170,2013-04-08 04:55:00